AAL3028 KASE-KPHX

Flight info

Callsign AAL3028
Flight time N/A
Altitude 37000
Route DCT LINDZ DCT JNC DCT GUP EAGUL6
Aircraft A319/M-SDE3FGHIRWY/LB1

Departure

Time 2026-04-27 09:01
Airport Aspen-Pitkin County Airport (Sardy Field) (KASE)

Arrival

Time N/A
Airport Phoenix Sky Harbor International Airport (KPHX)
Time Latitude Longitude Altitude Speed Heading
2026-04-27 08:48 39.21972 -106.86524 7789 ft 0 kts 102°
2026-04-27 08:56 39.21975 -106.86539 7779 ft 4 kts 83°
2026-04-27 08:56 39.21963 -106.86560 7777 ft 4 kts 353°
2026-04-27 08:56 39.21952 -106.86557 7780 ft 1 kts 340°
2026-04-27 08:59 39.21953 -106.86557 7784 ft 2 kts 340°
2026-04-27 08:59 39.22011 -106.86599 7774 ft 16 kts 312°
2026-04-27 08:59 39.21981 -106.86718 7780 ft 17 kts 181°
2026-04-27 09:00 39.21867 -106.86673 7796 ft 19 kts 160°
2026-04-27 09:00 39.21731 -106.86606 7806 ft 24 kts 160°
2026-04-27 09:00 39.21564 -106.86526 7823 ft 25 kts 160°
2026-04-27 09:00 39.21475 -106.86462 7822 ft 11 kts 163°
2026-04-27 09:01 39.21487 -106.86490 7823 ft 13 kts 340°
2026-04-27 09:01 39.21840 -106.86658 7799 ft 100 kts 339°
2026-04-27 09:01 39.22763 -106.87098 7736 ft 178 kts 339°
2026-04-27 09:01 39.23923 -106.87635 8732 ft 170 kts 342°
2026-04-27 09:02 39.24989 -106.88209 9579 ft 163 kts 325°
2026-04-27 09:02 39.25770 -106.89264 10359 ft 168 kts 296°
2026-04-27 09:02 39.26085 -106.90709 10821 ft 174 kts 278°
2026-04-27 09:02 39.26319 -106.92336 11035 ft 196 kts 280°
2026-04-27 09:03 39.26600 -106.94141 11239 ft 219 kts 281°
2026-04-27 09:03 39.26922 -106.96179 11555 ft 243 kts 281°
2026-04-27 09:03 39.27318 -106.98413 11890 ft 268 kts 288°
2026-04-27 09:03 39.28365 -107.00537 12181 ft 295 kts 307°
2026-04-27 09:04 39.29722 -107.02589 12460 ft 319 kts 309°
2026-04-27 09:04 39.31261 -107.04802 12673 ft 343 kts 310°
2026-04-27 09:04 39.32924 -107.07163 12826 ft 366 kts 310°
2026-04-27 09:04 39.34545 -107.09488 13031 ft 382 kts 308°
2026-04-27 09:05 39.36039 -107.12299 13596 ft 386 kts 297°
2026-04-27 09:05 39.37065 -107.15505 14238 ft 387 kts 285°
2026-04-27 09:05 39.37554 -107.18924 14883 ft 389 kts 274°
2026-04-27 09:05 39.37500 -107.22431 15466 ft 393 kts 263°
2026-04-27 09:06 39.36930 -107.25899 16029 ft 396 kts 256°
2026-04-27 09:06 39.36248 -107.29363 16579 ft 400 kts 256°
2026-04-27 09:06 39.35558 -107.32872 17100 ft 403 kts 256°
2026-04-27 09:06 39.34866 -107.36397 17651 ft 407 kts 256°
2026-04-27 09:07 39.34171 -107.39955 18163 ft 410 kts 256°
2026-04-27 09:07 39.33472 -107.43542 18613 ft 413 kts 256°
2026-04-27 09:07 39.32776 -107.47116 19064 ft 416 kts 256°
2026-04-27 09:07 39.32065 -107.50747 19516 ft 418 kts 256°
2026-04-27 09:08 39.31345 -107.54397 19966 ft 421 kts 256°
2026-04-27 09:08 39.30616 -107.58072 20406 ft 423 kts 256°
2026-04-27 09:08 39.29885 -107.61762 20820 ft 425 kts 256°
2026-04-27 09:08 39.29149 -107.65476 21219 ft 428 kts 256°
2026-04-27 09:09 39.28408 -107.69212 21615 ft 430 kts 256°
2026-04-27 09:09 39.27662 -107.72962 22009 ft 432 kts 256°
2026-04-27 09:09 39.26921 -107.76680 22388 ft 434 kts 256°
2026-04-27 09:09 39.26166 -107.80464 22760 ft 436 kts 256°
2026-04-27 09:10 39.25406 -107.84272 23121 ft 439 kts 256°
2026-04-27 09:10 39.24641 -107.88091 23475 ft 441 kts 256°
2026-04-27 09:10 39.23870 -107.91935 23780 ft 442 kts 256°
2026-04-27 09:10 39.23094 -107.95790 24095 ft 444 kts 256°
2026-04-27 09:11 39.22314 -107.99652 24389 ft 445 kts 256°
2026-04-27 09:11 39.21530 -108.03521 24683 ft 446 kts 256°
2026-04-27 09:11 39.20743 -108.07409 24965 ft 448 kts 256°
2026-04-27 09:11 39.19964 -108.11256 25243 ft 449 kts 256°
2026-04-27 09:12 39.19175 -108.15153 25511 ft 450 kts 256°
2026-04-27 09:12 39.18385 -108.19056 25891 ft 449 kts 256°
2026-04-27 09:12 39.17595 -108.22947 26311 ft 447 kts 256°
2026-04-27 09:12 39.16809 -108.26822 26736 ft 446 kts 256°
2026-04-27 09:13 39.16026 -108.30675 27161 ft 444 kts 256°
2026-04-27 09:13 39.15240 -108.34517 27595 ft 443 kts 256°
2026-04-27 09:13 39.14453 -108.38343 28047 ft 441 kts 255°
2026-04-27 09:13 39.13663 -108.42164 28501 ft 440 kts 255°
2026-04-27 09:14 39.12880 -108.45963 28947 ft 438 kts 255°
2026-04-27 09:14 39.12098 -108.49751 29410 ft 437 kts 255°
2026-04-27 09:14 39.11319 -108.53528 29878 ft 435 kts 255°
2026-04-27 09:14 39.10552 -108.57239 30283 ft 434 kts 255°
2026-04-27 09:15 39.09774 -108.60990 30692 ft 432 kts 255°
2026-04-27 09:15 39.08995 -108.64723 31103 ft 430 kts 255°
2026-04-27 09:15 39.08204 -108.68438 31507 ft 428 kts 253°
2026-04-27 09:15 39.06988 -108.71936 31883 ft 429 kts 240°
2026-04-27 09:16 39.05149 -108.74945 32289 ft 431 kts 227°
2026-04-27 09:16 39.02775 -108.77307 32696 ft 435 kts 213°
2026-04-27 09:16 39.00023 -108.78856 33096 ft 441 kts 200°
2026-04-27 09:16 38.96971 -108.79493 33494 ft 449 kts 187°
2026-04-27 09:17 38.93843 -108.79573 33867 ft 450 kts 186°
2026-04-27 09:17 38.90717 -108.79633 34209 ft 449 kts 186°
2026-04-27 09:17 38.87588 -108.79693 34543 ft 448 kts 186°
2026-04-27 09:17 38.84471 -108.79759 34906 ft 447 kts 186°
2026-04-27 09:18 38.81359 -108.79827 35271 ft 446 kts 186°
2026-04-27 09:18 38.78258 -108.79897 35616 ft 445 kts 187°
2026-04-27 09:18 38.75198 -108.79969 35973 ft 444 kts 187°
2026-04-27 09:18 38.72110 -108.80042 36320 ft 443 kts 187°
2026-04-27 09:19 38.69021 -108.80116 36681 ft 443 kts 187°
2026-04-27 09:19 38.65935 -108.80190 36825 ft 443 kts 187°
2026-04-27 09:19 38.62846 -108.80264 36855 ft 443 kts 187°
2026-04-27 09:20 38.56674 -108.80410 36852 ft 443 kts 187°
2026-04-27 09:20 38.50548 -108.80544 36858 ft 443 kts 187°
2026-04-27 09:21 38.44383 -108.80675 36863 ft 443 kts 187°
2026-04-27 09:21 38.38225 -108.80825 36861 ft 442 kts 188°
2026-04-27 09:22 38.32071 -108.80974 36862 ft 442 kts 188°
2026-04-27 09:22 38.25909 -108.81111 36866 ft 442 kts 188°
2026-04-27 09:23 38.19748 -108.81247 36879 ft 443 kts 188°
2026-04-27 09:23 38.13626 -108.81394 36879 ft 442 kts 188°
2026-04-27 09:24 38.07471 -108.81538 36884 ft 442 kts 188°
2026-04-27 09:24 38.01317 -108.81680 36890 ft 442 kts 188°
2026-04-27 09:25 37.95174 -108.81823 36896 ft 441 kts 188°
2026-04-27 09:25 37.89030 -108.81960 36893 ft 441 kts 188°
2026-04-27 09:26 37.82928 -108.82096 36898 ft 441 kts 188°
2026-04-27 09:26 37.76793 -108.82229 36905 ft 441 kts 189°
2026-04-27 09:27 37.70656 -108.82365 36909 ft 440 kts 189°
2026-04-27 09:27 37.64519 -108.82511 36907 ft 440 kts 189°
2026-04-27 09:28 37.58442 -108.82660 36924 ft 439 kts 189°
2026-04-27 09:28 37.52325 -108.82798 36948 ft 439 kts 189°
2026-04-27 09:29 37.46210 -108.82921 36964 ft 439 kts 189°
2026-04-27 09:29 37.40099 -108.83049 36979 ft 438 kts 189°
2026-04-27 09:30 37.34001 -108.83193 36986 ft 438 kts 190°
2026-04-27 09:30 37.28938 -108.83316 36989 ft 438 kts 190°
2026-04-27 09:31 37.21858 -108.83470 36977 ft 437 kts 190°
2026-04-27 09:31 37.16757 -108.83578 36967 ft 437 kts 190°
2026-04-27 09:32 37.10722 -108.83715 36948 ft 436 kts 191°
2026-04-27 09:32 37.04649 -108.83851 36923 ft 436 kts 191°
2026-04-27 09:33 36.98590 -108.83988 36896 ft 435 kts 191°
2026-04-27 09:33 36.92537 -108.84123 36899 ft 435 kts 191°
2026-04-27 09:34 36.86484 -108.84249 36891 ft 434 kts 191°
2026-04-27 09:34 36.80480 -108.84376 36894 ft 434 kts 191°
2026-04-27 09:35 36.74445 -108.84500 36887 ft 433 kts 191°
2026-04-27 09:35 36.68424 -108.84634 36888 ft 433 kts 192°
2026-04-27 09:36 36.62389 -108.84775 36887 ft 432 kts 192°
2026-04-27 09:36 36.56418 -108.84911 36887 ft 431 kts 192°
2026-04-27 09:37 36.50416 -108.85041 36886 ft 431 kts 192°
2026-04-27 09:37 36.44416 -108.85168 36890 ft 431 kts 192°
2026-04-27 09:38 36.38425 -108.85297 36892 ft 430 kts 193°
2026-04-27 09:38 36.32442 -108.85429 36898 ft 430 kts 193°
2026-04-27 09:39 36.26466 -108.85558 36899 ft 429 kts 193°
2026-04-27 09:39 36.20532 -108.85686 36904 ft 429 kts 193°
2026-04-27 09:40 36.14561 -108.85815 36905 ft 428 kts 193°